Location: Buch am Rannenberg
(48.6989°N, 10.6399°E)
Time: 14:58:00
(UTC+00:00)

Daily predictions for brighter satellites

Satellite Brightness Start Highest point End
(mag) Time Altitude Azimuth Time Altitude Azimuth Time Altitude Azimuth
Cosmos 1842 Rocket 3.6 15:49:39 10° S 15:54:07 81° E 15:58:38 10° NNE
ERBS 3.8 15:52:19 10° WNW 15:54:59 24° NNW 15:57:41 10° NE
Cosmos 540 Rocket 4.1 15:50:30 10° SSE 15:55:08 36° ESE 15:59:48 10° NE
CZ-4C R/B 3.2 15:51:26 10° NNE 15:55:17 81° ESE 15:58:54 10° SSW
SL-16 R/B 4.4 15:52:27 10° N 15:57:20 25° NW 16:02:14 10° WSW
Lacrosse 5 rocket 2.0 15:55:27 10° NW 15:58:57 33° NNE 16:02:37 10° E
ATLAS CENTAUR R/B 3.5 15:56:50 10° WNW 15:59:56 19° NNW 16:03:12 10° NNE
Cosmos 1092 Rocket 4.2 15:56:12 10° N 16:02:27 55° ENE 16:08:39 10° SSE
Cosmos 1666 4.1 16:01:17 10° NNE 16:03:49 17° ENE 16:06:20 10° ESE
USA 308 3.6 15:59:52 10° WNW 16:03:54 40° N 16:07:55 10° ENE
MOS 1 Rocket 4.2 16:01:01 10° N 16:05:52 52° WNW 16:10:25 10° SW
COSMOS 2455 3.4 16:01:47 10° S 16:07:22 41° ESE 16:12:58 10° NE
Spot 1 4.4 16:06:38 10° NNE 16:11:23 70° ESE 16:16:22 10° S
Cosmos 2322 Rocket 3.5 16:09:57 10° N 16:14:00 19° NE 16:18:03 10° E
Cosmos 1697 Rocket 2.8 16:08:35 10° NNW 16:14:14 82° WSW 16:19:51 10° SSE
CZ-4C R/B 3.0 16:08:56 10° NW 16:15:50 61° NE 16:24:00 10° ESE
Cosmos 468 Rocket 4.0 16:13:29 10° SSW 16:18:39 90° E 16:23:55 10° NNE
PSLV R/B 4.3 16:15:54 10° SE 16:19:13 32° ENE 16:22:36 10° N
Cosmos 1980 Rocket 2.2 16:13:50 10° NNW 16:19:29 63° ENE 16:25:04 10° SE
Meteor 2-21 4.5 16:14:45 10° N 16:20:45 57° ENE 16:26:41 10° SSE
NOAA 12 4.2 16:16:15 10° SSE 16:21:35 87° WSW 16:26:57 10° NNW
ATLAS CENTAUR R/B 3.0 16:14:34 10° SW 16:25:03 77° SE 16:28:49 14° ENE
COSMO-SKYMED 1 4.1 16:22:42 12° NE 16:25:05 18° E 16:28:01 10° SE
Cosmos 1898 Rocket 4.0 16:20:11 10° NNW 16:25:24 65° WSW 16:30:32 10° S
Cosmos 1627 Rocket 4.4 16:19:16 10° N 16:25:27 69° ENE 16:31:32 10° SSE
Meteor PRIRODA 4.0 16:21:57 10° S 16:25:33 66° WSW 16:29:10 10° NNW
Cosmos 2369 3.7 16:20:31 10° NNW 16:26:18 85° ENE 16:32:01 10° SSE
Cosmos 1933 3.3 16:23:49 10° S 16:27:51 75° E 16:31:53 10° NNE
Cosmos 1633 Rocket 3.7 16:25:14 10° N 16:29:11 32° ENE 16:33:07 10° SE
USA 305 3.5 16:25:31 10° WNW 16:29:34 41° N 16:32:38 16° ENE
Cosmos 2279 Rocket 4.5 16:24:08 10° SSE 16:29:46 38° E 16:35:24 10° NNE
FengYun 1-2 T 4.3 16:24:34 10° SSE 16:30:09 89° WSW 16:35:44 10° NNW
Cosmos 2034 Rocket 4.3 16:24:23 10° SSW 16:30:31 73° W 16:36:43 10° N
CZ-4B R/B 3.3 16:26:48 10° S 16:30:45 63° WSW 16:34:32 10° NNW
NOSS 2-2 (C) 4.4 16:26:09 10° NW 16:31:14 90° ESE 16:38:24 10° SE
Cosmos 1812 3.5 16:28:07 10° SSE 16:31:31 31° E 16:34:51 11° NNE
CORIOLIS 4.1 16:26:28 10° SSE 16:31:50 71° ENE 16:37:16 10° N
Cosmos 1818 3.9 16:27:00 10° NNW 16:32:17 46° NE 16:37:32 10° ESE
SL-16 R/B 3.0 16:28:40 10° NNW 16:33:35 29° NE 16:38:28 10° ESE
YAOGAN 1 4.4 16:36:55 14° NE 16:36:55 14° NE 16:38:14 10° NNE
AQUARIUS 4.1 16:31:54 10° SSE 16:36:22 74° ENE 16:40:53 10° N
Cosmos 1151 Rocket 3.7 16:32:50 10° SSE 16:36:45 34° E 16:40:43 10° NNE
Cosmos 2082 Rocket 2.4 16:32:15 10° S 16:37:46 55° ESE 16:43:01 11° NE
USA 267 3.3 16:32:04 13° ENE 16:37:59 74° SE 16:44:31 10° SW
SMAP 3.1 16:36:33 10° SSE 16:41:12 86° WSW 16:45:54 10° NNW
Meteor 2-14 Rocket 4.4 16:35:53 10° N 16:42:02 82° E 16:48:07 10° SSE
Meteor 1-14 Rocket 4.3 16:37:47 10° N 16:43:34 59° ENE 16:49:25 10° SSE
ARGOS 3.6 16:42:51 10° SE 16:47:51 39° ENE 16:52:51 10° N
MOS 1-B 4.3 16:42:14 10° SSE 16:47:55 63° ENE 16:53:38 10° N
Cosmos 2333 Rocket 3.9 16:45:02 10° N 16:48:16 15° NNE 16:49:04 15° NE
Cosmos 1763 Rocket 4.2 16:43:34 10° SW 16:48:31 51° WNW 16:53:32 10° NNE
Cosmos 1634 Rocket 4.0 16:42:57 10° S 16:49:16 79° E 16:55:37 10° NNE
Cosmos 2278 3.6 16:43:50 10° NNW 16:49:34 75° ENE 16:55:15 10° SSE
Cosmos 2026 Rocket 4.0 16:43:56 10° N 16:50:06 84° W 16:56:10 10° S
CZ-4B DEB 4.2 16:45:40 10° SSE 16:51:11 87° ENE 16:56:43 10° NNW
GEOS 3 Rocket 4.5 16:49:28 20° ENE 16:52:07 31° NNE 16:56:36 10° NNW
Cosmos 44 Rocket 3.3 16:49:32 10° NNW 16:54:27 58° NE 16:59:10 10° SE
Cosmos 1833 Rocket 3.2 16:50:00 10° SW 16:55:32 58° WNW 17:01:08 10° NNE
Cosmos 2150 Rocket 4.4 16:51:20 10° N 16:56:12 39° ENE 17:01:06 10° SE
CZ-2C R/B 4.5 16:51:55 10° SSW 16:56:25 37° W 17:00:51 10° NNW
Cosmos 841 Rocket 3.4 16:51:34 10° SSW 16:56:44 90° NW 17:01:46 11° NNE
Cosmos 1666 Rocket 3.5 16:52:31 10° N 16:56:59 71° E 17:01:22 10° SSE
Okean O Rocket 2.0 16:53:42 10° SE 16:57:52 41° ENE 17:02:03 10° N
MOS 1-B Rocket 4.2 16:52:04 10° NNE 16:57:57 56° ESE 17:04:38 10° S
Cosmos 1470 Rocket 4.0 16:56:07 10° N 17:00:20 39° ENE 17:04:32 10° SE
Cosmos 1328 Rocket 3.9 16:56:12 10° SSE 17:00:24 43° E 17:03:23 18° NNE
H-2A R/B 1.9 16:56:17 10° SSE 17:01:25 77° ENE 17:06:26 10° N
USA 306 3.3 16:57:50 10° WNW 17:01:57 47° NNE 17:03:36 30° ENE
Cosmos 1939 Rocket 4.1 16:58:51 10° S 17:02:47 45° W 17:06:43 10° NNW
COSMOS 2406 3.6 16:58:58 10° SW 17:04:40 64° WNW 17:10:10 11° NNE
Cosmos 2219 Rocket 3.9 17:01:43 10° N 17:04:46 15° NNE 17:04:46 15° NNE
ISS -2.2 17:02:03 10° W 17:05:11 35° SW 17:08:18 10° SSE
ATLAS 2AS CENTAUR R/B 4.1 17:00:53 10° NW 17:07:00 25° N 17:10:37 18° NE
CZ-2C R/B 2.8 17:02:59 12° NNE 17:07:35 48° E 17:12:33 10° S
Meteor 2-21 Rocket 4.4 17:01:45 10° N 17:07:53 87° W 17:13:57 10° S
Cosmos 1125 Rocket 3.7 17:03:28 10° NNW 17:08:32 45° ENE 17:13:34 10° SE
Cosmos 1500 4.2 17:06:51 10° NNW 17:10:28 47° W 17:14:03 10° SSW
USA 234 3.5 17:05:59 10° SE 17:12:30 71° SW 17:19:02 10° WNW
SKYMED 2 3.7 17:11:18 26° NE 17:13:30 50° E 17:17:43 10° S
Cosmos 1782 3.8 17:13:06 10° SSW 17:16:58 48° WNW 17:20:51 10° N
Cosmos 1900 4.4 17:12:18 10° SSW 17:17:03 57° ESE 17:18:52 35° ENE
Sich 1 4.4 17:14:00 10° NNW 17:18:01 39° W 17:22:02 10° SSW
CZ-2D R/B 3.7 17:14:21 10° S 17:18:08 61° W 17:21:56 10° NNW
Cosmos 1655 Rocket 4.0 17:12:26 10° N 17:18:46 58° ENE 17:25:01 10° SSE
CZ-4B R/B 3.0 17:15:00 10° SSE 17:20:24 84° ENE 17:25:46 10° NNW
USA 307 3.1 17:17:28 10° WNW 17:21:38 51° NNE 17:22:25 44° NE
Cosmos 2180 Rocket 4.4 17:16:37 10° S 17:22:54 71° E 17:29:09 10° NNE
Meteor 2-6 Rocket 4.1 17:17:26 10° S 17:23:07 70° E 17:28:31 11° NNE
SJ-11-01 4.2 17:19:59 10° SSE 17:24:43 76° ENE 17:29:28 10° N
ATLAS 5 CENTAUR R/B 1.8 17:18:51 10° NW 17:25:56 62° NNE 17:26:27 54° ENE
deb Chang Zheng 4 3.5 17:26:14 10° SSE 17:30:32 85° WSW 17:34:53 10° NNW
ERBS 4.3 17:29:19 10° NW 17:30:53 17° NNW 17:30:53 17° NNW
Cosmos 2237 4.4 17:28:26 10° NNW 17:33:57 46° NE 17:34:57 42° E
Cosmos 2360 Rocket 2.7 17:32:18 10° NNW 17:37:21 38° NE 17:37:21 38° NE
Lacrosse 5 rocket 1.4 17:34:22 10° WNW 17:38:17 71° SW 17:39:13 50° SSE
Cosmos 1666 4.0 17:36:02 10° NNW 17:39:32 40° W 17:43:00 10° SSW
ATLAS CENTAUR R/B 4.0 17:39:16 10° NNW 17:40:37 11° N 17:41:01 11° N
USA 308 3.0 17:40:04 10° WNW 17:44:08 61° N 17:44:08 61° N
Cosmos 1515 Rocket 3.5 17:40:35 10° S 17:44:48 67° ESE 17:44:48 67° ESE
Meteor 1-11 Rocket 3.6 17:46:45 10° N 17:52:25 84° ENE 17:58:10 10° SSE
Meteor 1-10 Rocket 4.1 17:46:51 10° S 17:52:37 87° E 17:56:15 24° NNE
COSMOS 2455 3.7 17:47:29 10° WSW 17:53:16 46° NW 17:56:39 24° NNE
COSMOS 2428 4.4 17:49:45 10° N 17:52:06 18° NNE 17:52:06 18° NNE
Cosmos 921 Rocket 3.0 17:53:54 10° SSW 17:57:55 76° W 17:57:55 76° W
Cosmos 2322 Rocket 2.0 17:53:18 10° NNW 17:59:02 78° ENE 18:00:16 56° SE
SL-08 RB Rocket 3.8 17:55:15 10° S 17:59:53 74° WSW 18:04:30 10° NNW
COSMO-SKYMED 1 3.2 17:59:55 33° N 18:01:35 55° WNW 18:05:49 10° SSW
Cosmos 2298 Rocket 4.4 17:56:53 10° NNW 18:02:09 62° WSW 18:07:23 10° S
Cosmos 1980 Rocket 4.5 17:58:36 10° NW 18:03:02 24° WSW 18:07:25 10° SSW
CZ-4C R/B 4.0 17:57:35 10° NW 18:04:30 46° WSW 18:12:25 10° S
Meteor 2-15 Rocket 4.4 18:03:31 10° S 18:09:39 84° W 18:14:07 20° N
USA 305 3.7 18:05:30 10° WNW 18:08:39 48° WNW 18:08:39 48° WNW
YAOGAN 1 4.4 18:14:04 23° NNW 18:14:04 23° NNW 18:15:42 10° NNW
CZ-2C R/B 4.0 18:13:58 10° SSW 18:14:25 11° SSW 18:14:25 11° SSW
Cosmos 2266 Rocket 4.5 18:11:32 10° NNW 18:17:48 61° W 18:24:06 10° S
SL-16 R/B 2.6 18:12:30 10° NW 18:18:05 61° WSW 18:21:04 28° S
USA 267 3.6 18:19:25 46° NNE 18:20:53 55° NNW 18:27:13 10° W
Cosmos 2237 Rocket 4.5 18:17:32 10° N 18:17:59 11° N 18:17:59 11° N
Cosmos 2082 Rocket 3.7 18:17:09 10° WSW 18:22:10 31° NW 18:24:53 21° N
GEOS 3 Rocket 3.9 18:30:35 65° WNW 18:30:35 65° WNW 18:35:03 10° NW
Cosmos 2333 Rocket 3.6 18:28:19 10° NNW 18:31:06 28° N 18:31:06 28° N
Okean O Rocket 3.8 18:30:42 10° SSW 18:34:21 25° W 18:38:02 10° NW
CZ-2C R/B 4.4 18:44:29 16° NNW 18:47:39 28° WNW 18:51:59 10° WSW
Cosmos 2219 Rocket 4.0 18:44:37 10° NNW 18:46:30 21° NNW 18:46:30 21° NNW
ATLAS CENTAUR R/B 4.4 18:51:40 10° WNW 18:54:28 20° NW 18:54:28 20° NW
NOSS 3-4 (A) 4.4 18:50:16 10° NW 18:55:00 46° NNW 18:55:00 46° NNW
NOSS 3-4 (C) 4.4 18:50:22 10° NW 18:55:05 45° NNW 18:55:05 45° NNW
ATLAS 2AS CENTAUR R/B 3.9 18:53:12 10° NW 18:58:02 32° N 18:58:02 32° N
Cosmos 2360 Rocket 4.0 19:16:20 10° NW 19:19:09 27° WNW 19:19:09 27° WNW
Cosmos 2322 Rocket 4.5 19:38:31 10° NW 19:42:09 19° W 19:42:09 19° W
